Terminal Aerodrome Forecast
Issued by NWS

Home | Current Version | Previous Version | Text Only | Print | Product List | Glossary On
Versions: 1 2 3 4 5 6 7 8 9 10 11 12 13 14 15 16 17 18 19 20 21 22 23 24 25 26 27 28 29 30 31 32 33 34 35 36 37 38 39 40 41 42 43 44 45 46 47 48 49 50
300
FTUS45 KBOU 300159 AAC
TAFAPA
TAF AMD
KAPA 300159Z 3002/3024 17014G24KT P6SM SCT060 SCT120
     FM300400 15011KT P6SM VCTS SCT060CB BKN120
     FM300600 18011KT P6SM SCT120
     FM301400 17007KT P6SM SCT070
     FM302000 06010KT P6SM SCT080=

USA.gov is the U.S. government's official web portal to all federal, state and local government web resources and services.